Regional Weather Roundup
Issued by NWS

Home | Current Version | Previous Version | Text Only | Print | Product List | Glossary Off
Versions: 1 2 3 4 5 6 7 8 9 10 11 12 13 14 15 16 17 18 19 20 21 22 23 24 25 26 27 28 29 30 31 32 33 34 35 36 37 38 39 40 41 42 43 44 45 46 47 48 49 50

000
ASUS45 KPSR 302010
RWRAZ

ARIZONA REGIONAL HOURLY WEATHER ROUNDUP
NATIONAL WEATHER SERVICE PHOENIX AZ
100 PM MST WED JUL 30 2014

NOTE: FAIR INDICATES FEW OR NO CLOUDS BELOW 12,000 FEET WITH NO
SIGNIFICANT WEATHER AND/OR OBSTRUCTIONS TO VISIBILITY.

AZZ001>003-036-302100-
NORTHWEST ARIZONA

CITY           SKY/WX    TMP DP  RH WIND       PRES   REMARKS
BULLHEAD CITY  SUNNY    108  54  16 NW6       29.83F HX 106
KINGMAN        MOSUNNY   95  47  19 MISG      30.05F
$$

AZZ004>008-015-016-018-302100-
NORTH CENTRAL ARIZONA

CITY           SKY/WX    TMP DP  RH WIND       PRES   REMARKS
GRAND CANYON   MOSUNNY   81  45  28 VRB6G18   30.31S
WILLIAMS       SUNNY     81  45  28 W12G22    30.38F
PRESCOTT       MOSUNNY   90  45  21 SW10G24   30.19F
FLAGSTAFF      MOSUNNY   81  43  26 SW14      30.34F
PAYSON         MOSUNNY   90  46  22 SW8G17    30.21F
PAGE           SUNNY     92  49  22 VRB6      30.10F
$$

AZZ009>014-017-302100-
NORTHEAST ARIZONA

CITY           SKY/WX    TMP DP  RH WIND       PRES   REMARKS
WINSLOW        PTSUNNY   90  47  22 VRB5      30.15F
SAINT JOHNS    MOSUNNY   91  45  20 W15       30.21
WINDOW ROCK    PTSUNNY   85  46  25 W9G20     30.29S
SHOW LOW       SUNNY     82  45  26 SW9G16    30.31F
$$

AZZ023-302100-
GREATER PHOENIX AREA

CITY           SKY/WX    TMP DP  RH WIND       PRES   REMARKS
PHOENIX        MOSUNNY  108  51  15 VRB3      29.85F HX 105
BUCKEYE          N/A    106  54  17 S5        29.86F HX 104
GLENDALE       MOSUNNY  108  52  15 S8        29.87F HX 105
LUKE AFB       NOT AVBL
DEER VALLEY    SUNNY    103  48  15 S9        29.88F
SCOTTSDALE     SUNNY    105  52  17 VRB6      29.90F HX 103
MESA-FALCON    PTSUNNY  104  52  17 S6        29.88  HX 101
MESA-GATEWAY   MOSUNNY  104  55  20 NW8       29.90F HX 103
CHANDLER       MOSUNNY  104  52  17 VRB5      29.88F HX 101
$$

AZZ027-028-302100-
SOUTHWEST MARICOPA COUNTY AND PINAL COUNTY

CITY           SKY/WX    TMP DP  RH WIND       PRES   REMARKS
CASA GRANDE    SUNNY    106  55  18 SW9G22    29.90F HX 105
GILA BEND      PTCLDY   109  48  13 VRB3      29.86F HX 106
$$

AZZ503-504-507>509-302100-
SOUTHEAST ARIZONA

CITY           SKY/WX    TMP DP  RH WIND       PRES   REMARKS
TUCSON         PTSUNNY   98  52  21 SE5       30.02F
DAVIS-MONTHAN  MOSUNNY   97  55  24 SW6       30.00F
RYAN FIELD       N/A    100  54  20 W9        29.99F
NOGALES        MOSUNNY   96  52  22 W5        30.10F
SIERRA VISTA   PTSUNNY   90  52  27 W3        30.18S THUNDER
DOUGLAS        PTSUNNY   88  60  38 SW8       30.13F
SAFFORD        MOSUNNY  100  49  17 SW16      30.00F
$$

AZZ020-021-025-026-031-302100-
SOUTHWEST ARIZONA

CITY           SKY/WX    TMP DP  RH WIND       PRES   REMARKS
YUMA           MOSUNNY  111  45  11 VRB6      29.80F HX 106
$$

CAZ031-033-041-043-047-048-061-302100-
SOUTHERN CALIFORNIA

CITY           SKY/WX    TMP DP  RH WIND       PRES   REMARKS
DOWNTOWN L.A.  SUNNY     87  63  44 VRB5      29.93S
L.A. AIRPORT   PTSUNNY   77  63  61 W14       29.96S
SAN DIEGO      MOSUNNY   79  64  60 W8        29.96S
BURBANK        SUNNY     90  57  32 VRB6      29.94F
ONTARIO        PTSUNNY   94  55  26 NW9       29.95S
RIVERSIDE      SUNNY     95  52  23 W6        29.94F
PALM SPRINGS   SUNNY    111  44  10 E8        29.83F HX 106
EL CENTRO NAS  MOSUNNY  110  47  12 VRB5      29.78F HX 106
IMPERIAL       MOSUNNY  110  48  12 E5        29.78F HX 106
BLYTHE           N/A    N/A N/A N/A MISG      29.81F
NEEDLES        SUNNY    109  52  15 NE12      29.84F HX 107
$$

NVZ020-UTZ003-302100-
SOUTHERN NEVADA-UTAH

CITY           SKY/WX    TMP DP  RH WIND       PRES   REMARKS
LAS VEGAS      MOSUNNY  101  52  19 CALM      29.93F
SALT LAKE CITY PTSUNNY   77  59  53 VRB3      30.20F
$$

NMZ009-TXZ055-302100-
NEW MEXICO-WEST TEXAS

CITY           SKY/WX    TMP DP  RH WIND       PRES   REMARKS
ALBUQUERQUE    MOSUNNY   83  55  38 SW7       30.19F
EL PASO        MOSUNNY   97  52  21 NW12      30.05F
$$


........................KEY........................
SKY/WX - SKY CONDITION/WEATHER
TMP    - TEMPERATURE IN FAHRENHEIT
DP     - DEW POINT IN FAHRENHEIT
RH     - RELATIVE HUMIDITY IN PERCENT
WIND   - DIRECTION AND SPEED IN MILES PER HOUR (MPH)
VRB    - VARIABLE WIND DIRECTION
PRES   - MEAN SEA LEVEL PRESSURE IN INCHES OF MERCURY
         F - FALLING PRESSURE   R - RISING PRESSURE
         S - STEADY PRESSURE
VSB    - VISIBILITY IN MILES
HX     - HEAT INDEX IN FAHRENHEIT
WCI    - WIND CHILL INDEX IN FAHRENHEIT
TC     - TEMPERATURE IN CELSIUS WHICH IS ALSO KNOWN AS
         TEMPERATURE IN CENTIGRADE
AFB    - AIR FORCE BASE
         LUKE AFB IS LUKE AIR FORCE BASE
         DAVIS-MONTHAN IS DAVIS-MONTHAN AIR FORCE BASE
NAS    - NAVAL AIR STATION
         EL CENTRO NAS IS EL CENTRO NAVAL AIR STATION
N/A    - NOT AVAILABLE



USA.gov is the U.S. government's official web portal to all federal, state and local government web resources and services.